Date String (YYYY-MM-DD hh:mm:ss) UTC,Instrument flags,Ambient pressure (hPa),Sample flow (lpm),Bypass flow (lpm),Sample temperature (°C),Ambient temperature (°C),ASC tube jacket temperature (°C),LED temperature (°C),Box temperature (°C),Sample RH (%),Span deviation,Mass concentration (μg/m³),Mass concentration (μg/m³),Mass concentration (μg/m³)
DateTimeUTC,F1_M11,P_M11,Q1_M11,Q2_M11,T1_M11,T2_M11,T3_M11,T4_M11,T5_M11,U1_M11,ZSPAN_M11,X0_M11,X2_M11,X1_M11
2023-01-24 07:00:00,,0822.4,4.99,0.00,22.4,20.8,00.0,31.2,24.0,14.0,-001.6,0021.39,0019.05,0018.67
2023-01-24 07:01:00,,0822.3,5.00,0.00,22.3,20.8,00.0,31.2,24.0,14.0,-001.3,0021.15,0018.84,0018.49
2023-01-24 07:02:00,,0822.3,5.00,0.00,22.3,20.8,00.0,31.2,24.1,14.0,-001.3,0020.91,0018.66,0018.33
2023-01-24 07:03:00,,0822.3,5.00,0.00,22.4,21.6,00.0,31.1,24.2,14.0,-001.6,0020.59,0018.43,0018.15
2023-01-24 07:04:00,,0822.3,5.00,0.00,22.5,22.5,00.0,31.1,24.4,13.9,-001.5,0020.71,0018.31,0018.01
2023-01-24 07:05:00,,0822.3,4.99,0.00,22.6,23.0,00.0,31.2,24.6,13.8,-001.3,0020.89,0018.17,0017.85
2023-01-24 07:06:00,,0822.3,4.99,0.00,22.6,22.6,00.0,31.2,24.6,13.8,-001.4,0020.76,0018.02,0017.72
2023-01-24 07:07:00,,0822.3,5.00,0.00,22.6,22.2,00.0,31.2,24.5,13.8,-001.4,0021.05,0017.96,0017.64
2023-01-24 07:08:00,,0822.3,5.00,0.00,22.7,21.9,00.0,31.3,24.5,13.8,-001.4,0021.55,0017.92,0017.57
2023-01-24 07:09:00,,0822.3,5.01,0.00,22.6,21.7,00.0,31.3,24.4,13.7,-001.4,0021.10,0017.88,0017.54
2023-01-24 07:10:00,,0822.3,4.99,0.00,22.6,21.5,00.0,31.3,24.4,13.7,-001.5,0021.05,0017.94,0017.57
2023-01-24 07:11:00,,0822.2,5.00,0.00,22.6,21.4,00.0,31.3,24.4,13.7,-001.4,0021.07,0017.99,0017.62
2023-01-24 07:12:00,,0822.2,5.00,0.00,22.6,21.3,00.0,31.3,24.4,13.7,-001.5,0021.13,0018.03,0017.67
2023-01-24 07:13:00,,0822.2,5.01,0.00,22.6,21.2,00.0,31.3,24.3,13.7,-001.5,0021.20,0018.10,0017.74
2023-01-24 07:14:00,,0822.2,4.99,0.00,22.6,21.2,00.0,31.3,24.3,13.7,-001.5,0021.26,0018.18,0017.82
2023-01-24 07:15:00,,0822.2,4.99,0.00,22.6,21.2,00.0,31.3,24.3,13.7,-001.6,0021.11,0018.24,0017.88
2023-01-24 07:16:00,,0822.2,5.00,0.00,22.6,21.1,00.0,31.3,24.3,13.7,-001.7,0020.85,0018.30,0017.95
2023-01-24 07:17:00,,0822.2,5.01,0.00,22.6,21.1,00.0,31.3,24.3,13.7,-001.7,0020.93,0018.35,0017.99
2023-01-24 07:18:00,,0822.3,5.02,0.00,22.5,21.1,00.0,31.3,24.3,13.7,-001.8,0020.56,0018.33,0017.98
2023-01-24 07:19:00,,0822.2,5.04,0.00,22.5,21.1,00.0,31.3,24.3,13.7,-001.9,0020.02,0018.30,0017.98
2023-01-24 07:20:00,,0822.2,5.00,0.00,22.5,21.0,00.0,31.3,24.3,13.7,-001.9,0019.95,0018.27,0017.97
2023-01-24 07:21:00,,0822.2,5.00,0.00,22.5,21.0,00.0,31.3,24.3,13.7,-001.9,0019.89,0018.23,0017.95
2023-01-24 07:22:00,,0822.1,5.02,0.00,22.5,21.0,00.0,31.3,24.3,13.8,-002.0,0019.97,0018.27,0017.97
2023-01-24 07:23:00,,0822.1,4.99,0.00,22.5,21.0,00.0,31.3,24.2,13.8,-001.9,0020.06,0018.33,0017.99
2023-01-24 07:24:00,,0822.1,5.00,0.00,22.5,20.9,00.0,31.2,24.2,13.7,-002.0,0020.03,0018.31,0017.96
2023-01-24 07:25:00,,0822.1,5.00,0.00,22.5,20.9,00.0,31.2,24.2,13.7,-001.9,0020.69,0018.30,0017.94
2023-01-24 07:26:00,,0822.1,5.01,0.00,22.5,20.9,00.0,31.2,24.2,13.7,-001.9,0021.26,0018.24,0017.89
2023-01-24 07:27:00,,0822.1,5.01,0.00,22.4,20.9,00.0,31.2,24.2,13.7,-002.0,0021.15,0018.15,0017.82
2023-01-24 07:28:00,,0822.1,4.99,0.00,22.4,20.9,00.0,31.2,24.2,13.6,-002.1,0021.08,0018.07,0017.75
2023-01-24 07:29:00,,0822.0,4.96,0.00,22.4,20.8,00.0,31.2,24.2,13.6,-002.1,0021.01,0018.01,0017.70
2023-01-24 07:30:00,,0822.1,5.00,0.00,22.4,20.8,00.0,31.2,24.2,13.7,-002.0,0021.02,0017.97,0017.63
2023-01-24 07:31:00,,0822.1,4.99,0.00,22.4,20.8,00.0,31.2,24.2,13.7,-002.1,0021.16,0018.02,0017.64
2023-01-24 07:32:00,,0822.0,5.00,0.00,22.4,20.8,00.0,31.2,24.2,13.7,-002.1,0021.36,0018.16,0017.75
2023-01-24 07:33:00,,0822.1,4.96,0.00,22.4,20.8,00.0,31.2,24.1,13.8,-002.2,0021.44,0018.23,0017.82
2023-01-24 07:34:00,,0822.1,4.99,0.00,22.4,20.8,00.0,31.2,24.1,13.8,-002.3,0021.38,0018.25,0017.87
2023-01-24 07:35:00,,0822.1,4.99,0.00,22.4,21.5,00.0,31.1,24.3,13.8,-002.2,0021.50,0018.33,0017.94
2023-01-24 07:36:00,,0822.1,4.99,0.00,22.5,22.5,00.0,31.2,24.5,13.7,-002.1,0020.84,0018.34,0017.96
2023-01-24 07:37:00,,0822.1,4.99,0.00,22.6,22.9,00.0,31.2,24.7,13.6,-002.2,0020.26,0018.38,0017.99
2023-01-24 07:38:00,,0822.1,4.99,0.00,22.7,22.6,00.0,31.2,24.7,13.5,-002.1,0020.34,0018.45,0018.05
2023-01-24 07:39:00,,0822.1,4.99,0.00,22.7,22.2,00.0,31.3,24.6,13.5,-002.3,0020.44,0018.51,0018.11
2023-01-24 07:40:00,,0822.1,5.01,0.00,22.7,21.9,00.0,31.3,24.5,13.5,-002.2,0020.50,0018.58,0018.18
2023-01-24 07:41:00,,0822.1,5.00,0.00,22.7,21.7,00.0,31.3,24.5,13.5,-002.2,0020.52,0018.63,0018.25
2023-01-24 07:42:00,,0822.1,5.00,0.00,22.7,21.5,00.0,31.3,24.5,13.4,-002.1,0020.51,0018.64,0018.27
2023-01-24 07:43:00,,0822.1,5.02,0.00,22.7,21.4,00.0,31.3,24.4,13.5,-002.2,0020.56,0018.57,0018.21
2023-01-24 07:44:00,,0822.0,4.99,0.00,22.6,21.3,00.0,31.3,24.4,13.4,-002.2,0020.66,0018.49,0018.14
2023-01-24 07:45:00,,0822.0,4.99,0.00,22.6,21.3,00.0,31.3,24.4,13.4,-002.1,0020.61,0018.43,0018.06
2023-01-24 07:46:00,,0822.0,5.00,0.00,22.6,21.3,00.0,31.3,24.4,13.5,-002.1,0020.54,0018.38,0018.01
2023-01-24 07:47:00,,0822.0,5.00,0.00,22.6,21.3,00.0,31.3,24.4,13.5,-002.0,0020.53,0018.37,0018.01
2023-01-24 07:48:00,,0822.0,5.00,0.00,22.6,21.3,00.0,31.3,24.3,13.5,-001.8,0020.56,0018.39,0018.05
2023-01-24 07:49:00,,0822.1,5.00,0.00,22.6,21.2,00.0,31.3,24.3,13.5,-001.8,0020.52,0018.37,0018.05
2023-01-24 07:50:00,,0822.0,5.00,0.00,22.6,21.1,00.0,31.3,24.3,13.5,-001.6,0020.47,0018.39,0018.06
2023-01-24 07:51:00,,0822.3,5.04,0.00,22.6,21.1,00.0,31.3,24.3,13.5,-001.5,0020.46,0018.40,0018.08
2023-01-24 07:52:00,,0822.3,4.95,0.00,22.6,21.0,00.0,31.3,24.3,13.5,-001.5,0020.41,0018.40,0018.10
2023-01-24 07:53:00,,0822.1,4.99,0.00,22.5,21.1,00.0,31.3,24.3,13.5,-001.5,0020.41,0018.40,0018.10
2023-01-24 07:54:00,,0822.2,4.97,0.00,22.5,21.1,00.0,31.3,24.3,13.6,-001.5,0020.34,0018.45,0018.16
2023-01-24 07:55:00,,0822.2,5.02,0.00,22.5,21.0,00.0,31.3,24.3,13.6,-001.5,0020.28,0018.51,0018.22
2023-01-24 07:56:00,,0822.0,5.00,0.00,22.5,21.0,00.0,31.3,24.3,13.6,-001.5,0020.38,0018.59,0018.31
2023-01-24 07:57:00,,0821.8,5.00,0.00,22.5,21.0,00.0,31.3,24.3,13.6,-001.5,0020.44,0018.66,0018.37
2023-01-24 07:58:00,,0821.8,5.00,0.00,22.5,21.0,00.0,31.3,24.2,13.6,-001.8,0020.44,0018.70,0018.42
2023-01-24 07:59:00,,0821.9,5.00,0.00,22.5,21.0,00.0,31.3,24.2,13.6,-001.8,0020.52,0018.76,0018.46
